Theta_e
284 284 284 283 283 282 282 281 281 281 280 280 280 280 279 280 279 279 279 279 278 278 278 278 278 278 277 277 277 276 276 276 275 275 275 275 275 274 274 274 273 273 273 273 273 273 273 273 273 273 273 273 273 273 273 272 272 273 273 272 273 272 272 271 269 269 271 272 272 272 273 273 272 273 272 273 273 273 275 273 274 273 273 273 274
284 283 283 283 283 282 282 281 281 281 280 280 280 279 279 279 279 279 279 278 278 278 278 278 278 278 277 277 276 276 276 276 275 275 275 274 273 274 273 273 273 272 272 272 273 274 273 272 272 272 273 272 272 272 272 272 272 271 271 272 271 272 272 271 269 269 268 272 271 272 272 273 271 273 272 272 272 273 272 273 273 273 273 273 273
284 283 283 283 282 282 281 281 281 280 280 280 279 279 279 279 279 279 278 278 278 278 278 278 278 278 278 277 276 275 276 275 275 274 274 274 273 273 273 273 273 272 272 272 272 272 272 272 271 272 272 271 271 271 272 271 272 271 271 271 270 271 271 271 270 268 269 269 271 271 271 272 272 272 272 273 273 273 272 272 272 273 274 274 274
283 282 282 282 282 281 281 281 280 280 280 280 279 279 279 279 279 279 278 278 278 278 278 278 278 277 277 276 275 275 275 275 274 273 273 273 273 273 272 273 273 272 272 272 272 272 272 271 271 271 271 271 271 271 271 271 271 271 271 271 271 271 271 271 271 270 269 268 270 271 272 271 272 273 273 273 272 272 272 272 273 273 273 274 274
283 283 283 282 281 281 281 281 281 280 280 280 279 279 279 278 278 278 278 277 278 278 278 278 277 277 276 276 276 275 275 275 274 274 274 274 273 272 272 272 272 272 272 272 274 272 271 271 271 270 270 269 270 270 271 270 271 270 270 271 271 271 271 271 271 271 270 268 269 271 272 272 272 272 273 271 272 272 272 272 272 272 273 274 274
283 283 282 282 282 281 281 281 281 281 280 280 279 279 278 278 278 278 278 278 278 278 278 277 277 277 277 276 276 275 274 274 274 274 273 273 272 272 271 272 272 272 272 272 272 271 271 270 271 270 269 269 269 270 270 270 270 270 270 270 271 271 271 271 271 270 270 269 269 269 270 270 270 271 272 272 271 271 271 272 273 273 273 273 274
283 283 283 283 282 282 282 282 282 281 280 280 279 278 278 278 278 278 279 278 278 278 277 277 277 277 277 276 275 274 274 273 273 273 273 272 273 273 271 271 272 271 271 271 271 271 271 270 270 270 270 270 269 269 269 269 270 270 270 270 271 271 270 270 271 270 270 269 269 269 269 270 271 269 271 272 272 272 271 271 271 273 274 273 273
283 283 283 282 283 283 283 282 281 281 280 279 279 278 278 279 279 279 279 278 278 278 277 277 277 277 277 276 275 275 274 273 273 273 273 273 273 272 273 272 271 271 271 270 271 270 271 271 270 271 271 270 270 269 270 269 270 270 271 270 270 270 269 269 269 269 268 268 268 268 269 269 270 271 272 272 271 272 273 272 270 271 273 274 274
282 283 283 283 284 284 283 281 280 280 279 279 279 279 279 279 279 279 278 278 278 278 278 278 276 276 275 275 275 275 274 274 274 273 272 272 273 273 273 273 271 271 270 270 270 270 269 270 270 270 272 274 276 276 275 275 271 267 269 270 269 269 268 266 265 266 267 267 267 269 269 270 270 270 270 270 271 271 273 273 272 273 273 273 274
283 283 283 284 283 283 282 282 281 280 279 279 280 280 279 279 279 278 278 278 278 277 277 277 276 276 275 275 274 274 274 274 275 277 276 274 273 273 272 272 272 271 270 270 269 270 270 269 270 275 275 276 276 276 276 276 277 274 270 269 268 267 264 264 264 267 268 268 268 269 269 269 270 270 271 272 273 273 273 273 271 272 272 271 272
283 283 283 283 283 283 282 282 281 281 281 280 280 280 279 279 278 278 278 277 277 277 276 276 276 276 275 274 274 274 274 274 278 280 279 278 274 273 273 272 272 271 270 270 270 270 269 269 268 272 274 274 273 274 275 275 275 275 276 276 275 271 267 267 268 270 269 268 270 270 270 269 271 272 272 272 273 273 272 272 271 270 269 267 266
283 283 283 283 283 283 282 282 281 281 281 280 280 280 279 278 278 278 277 277 276 276 276 276 276 276 275 274 274 274 274 276 280 281 281 280 277 274 273 272 272 271 270 270 270 270 269 269 269 269 269 269 269 269 272 274 274 274 275 275 276 276 276 273 271 270 271 270 271 271 271 271 272 272 272 272 271 271 271 271 270 269 268 267 267
284 284 283 283 283 283 282 282 281 281 281 280 280 279 279 278 278 277 277 277 276 275 276 276 275 275 274 274 274 274 273 278 281 282 282 282 280 276 273 273 271 271 271 270 270 269 269 269 269 269 269 273 271 268 267 267 272 274 275 275 276 276 277 277 278 276 275 273 272 272 272 272 271 272 272 271 272 270 270 269 268 268 268 267 267
284 284 284 283 283 283 282 282 281 281 281 280 279 278 278 278 278 278 277 277 276 276 276 275 275 274 274 274 274 274 273 277 281 283 283 282 282 278 273 273 272 271 271 271 270 269 269 269 268 268 268 268 268 268 268 267 267 267 268 269 269 272 276 277 277 277 277 274 273 272 273 273 271 272 272 273 270 268 268 267 268 267 266 265 267
284 284 284 284 283 283 282 281 281 281 280 279 278 278 278 278 278 278 277 277 276 276 276 275 275 274 274 273 273 273 273 278 281 283 283 283 283 281 274 273 272 272 271 271 270 269 269 269 268 268 268 267 268 268 267 267 265 265 267 269 270 270 271 272 273 274 274 274 274 273 274 273 272 272 272 272 271 270 270 269 268 266 266 268 267
284 284 284 284 283 282 282 281 280 280 279 278 278 278 278 278 278 277 277 276 276 275 274 274 274 274 273 273 273 272 272 278 281 283 284 284 284 280 274 274 272 272 271 271 270 270 269 269 268 268 268 267 270 274 273 270 269 267 267 270 271 272 273 275 276 277 276 275 275 274 273 273 275 273 273 272 271 271 271 268 265 265 265 263 263
284 284 284 284 283 282 281 281 280 280 279 278 278 278 278 277 277 276 275 275 274 274 274 274 273 273 273 273 272 272 272 276 281 283 284 284 283 278 274 273 272 271 271 271 270 269 268 268 268 267 268 267 271 274 275 275 272 271 271 270 271 273 274 275 276 276 276 276 276 275 275 275 275 274 274 274 273 272 267 263 261 263 263 262 262
284 284 283 283 282 281 281 280 280 280 279 278 278 278 277 276 276 275 274 274 274 274 273 273 272 272 272 272 272 272 272 274 280 282 284 284 283 277 274 272 272 271 271 272 270 269 268 271 270 268 268 268 272 275 276 275 273 273 272 272 272 272 272 273 272 272 274 273 272 272 272 272 272 272 272 272 273 272 264 261 263 264 263 263 261
283 283 283 282 281 281 281 281 280 280 279 279 278 277 277 276 276 274 274 274 274 272 272 272 271 271 272 272 274 273 272 274 278 281 283 284 283 276 274 271 271 270 270 269 269 268 268 270 272 271 269 269 274 275 276 276 274 273 273 273 272 271 271 272 270 267 266 265 266 265 265 267 266 265 266 271 271 270 267 265 265 263 262 263 263
283 282 281 281 281 280 280 280 280 280 279 278 278 277 277 275 274 274 273 273 273 272 271 272 272 272 272 271 272 272 272 271 273 280 283 284 284 275 272 271 270 270 270 269 267 267 267 267 270 275 276 275 275 276 277 277 275 275 274 272 270 270 271 269 267 267 266 266 265 263 263 264 264 264 264 265 266 266 268 267 266 264 262 263 263
281 281 280 280 279 279 279 279 279 279 279 279 278 276 276 276 274 273 272 272 271 270 270 271 271 271 271 271 270 270 271 270 271 277 281 283 284 279 271 272 271 269 268 267 266 265 265 266 266 271 276 277 277 278 278 278 278 275 272 270 270 271 271 266 268 271 265 264 261 259 259 259 260 261 263 263 264 265 266 267 267 266 264 262 262
278 278 279 279 279 278 278 278 279 279 277 277 276 275 274 275 274 273 272 271 271 270 269 269 270 270 269 268 268 268 269 272 269 274 278 282 283 283 273 273 272 269 266 265 265 265 265 266 266 270 274 276 277 278 278 278 278 275 272 275 275 277 269 267 264 262 260 258 256 256 256 256 258 258 260 261 263 264 265 265 266 266 266 265 264
277 277 277 277 277 278 278 277 278 277 277 276 276 276 274 273 272 271 271 270 270 269 268 268 267 268 267 267 267 267 267 267 273 269 274 279 282 283 281 276 277 271 268 266 266 266 266 267 268 271 274 275 276 277 278 278 278 276 275 277 276 275 269 263 262 259 257 257 256 255 256 256 256 258 259 260 262 263 264 265 265 266 265 266 266
276 276 277 277 276 276 276 277 277 277 277 276 275 275 272 272 271 271 270 270 269 269 268 267 267 267 267 268 267 266 266 265 269 273 271 275 279 282 283 281 279 273 269 268 267 266 266 267 268 272 274 275 277 277 278 278 277 277 276 276 276 272 263 262 260 258 258 257 255 254 256 256 256 258 259 261 262 264 264 265 264 265 265 265 265
275 275 276 276 276 276 275 276 276 275 275 275 275 274 271 270 270 268 268 269 269 269 269 267 267 268 268 268 269 268 265 264 264 268 274 274 276 279 281 282 282 280 273 270 269 268 270 272 273 274 275 276 277 277 277 277 278 278 275 275 272 263 260 258 257 255 255 255 256 256 256 258 259 260 262 263 263 263 262 262 262 262 263 263 263
274 275 275 275 275 273 273 272 273 273 273 274 275 275 273 271 271 269 268 269 269 269 270 268 268 268 268 269 269 269 265 264 264 264 268 271 274 276 278 280 281 281 278 273 274 274 274 275 275 275 275 275 274 274 271 270 275 275 275 273 262 260 257 256 255 255 256 255 256 257 258 258 259 261 261 261 260 260 260 260 260 261 260 261 261
274 272 273 272 269 271 273 273 271 271 271 271 272 273 272 271 271 269 268 269 269 269 269 269 268 267 268 269 269 267 265 264 263 262 262 264 266 270 273 275 278 280 279 277 275 274 274 275 274 275 275 276 275 275 272 272 270 270 265 262 257 257 256 256 256 257 257 256 256 257 257 258 258 259 259 257 258 259 259 259 259 259 260 260 259
273 272 270 270 270 270 272 270 271 271 270 271 271 270 270 270 270 271 269 269 269 269 269 269 269 268 268 269 268 265 266 264 264 263 263 264 265 266 268 270 272 274 275 276 275 274 273 275 276 274 272 271 269 266 265 265 264 263 262 258 256 256 260 263 263 260 260 260 258 256 256 256 255 257 257 256 257 259 259 258 257 259 259 259 258
269 266 266 266 269 268 270 270 271 271 269 268 270 271 271 270 271 271 268 268 270 271 270 270 270 270 269 269 268 267 267 266 266 269 266 268 266 265 266 268 270 272 275 277 274 272 272 272 271 269 268 267 266 266 264 261 260 259 259 257 254 253 254 255 256 258 256 255 256 255 256 254 256 256 256 256 257 258 257 257 258 257 258 256 257
266 266 265 267 266 266 266 267 266 268 268 268 267 267 269 273 271 270 268 272 275 276 275 271 269 266 268 269 268 269 269 268 273 274 273 273 274 274 272 272 273 272 274 278 275 271 270 269 270 269 269 267 267 266 265 263 262 259 257 261 258 254 255 255 255 256 255 256 256 256 256 255 256 257 257 258 259 258 259 262 258 256 255 256 257
267 267 266 266 267 266 265 265 264 264 264 265 266 266 266 267 275 277 275 274 275 276 278 278 277 276 270 267 268 275 275 276 275 275 275 276 276 276 276 276 275 275 276 274 274 271 269 269 269 269 268 268 267 267 266 265 263 261 259 257 257 258 259 257 256 256 256 256 256 256 256 257 258 258 259 260 260 261 260 257 256 255 254 256 257
270 269 267 265 267 266 265 265 264 265 263 263 265 265 266 267 268 273 276 277 277 276 277 277 278 278 278 274 269 265 272 276 276 276 276 276 277 277 277 277 277 277 277 277 271 271 270 269 268 268 268 267 267 266 266 265 264 262 260 256 257 256 257 257 258 257 256 255 255 256 256 257 258 259 259 260 261 261 260 259 256 255 256 255 257
269 266 265 267 265 266 265 265 264 265 264 263 263 263 265 265 267 266 267 275 277 277 277 278 278 278 278 279 279 275 272 273 276 276 277 277 277 277 278 278 278 278 278 274 271 269 269 269 268 268 267 266 266 266 265 264 263 262 261 259 259 258 258 259 261 258 256 257 256 257 258 259 259 259 260 260 260 259 259 259 258 255 254 256 258
267 266 265 265 265 264 264 265 264 264 263 263 263 263 263 264 264 263 262 261 265 271 276 278 278 278 278 278 278 278 278 277 276 276 277 277 277 277 277 276 278 279 277 272 272 270 269 268 268 268 267 267 266 265 264 263 262 262 260 260 260 259 259 258 257 256 256 257 257 257 257 257 258 259 259 259 260 259 259 259 257 255 255 256 257
263 266 267 265 265 264 264 264 264 262 262 263 262 263 263 263 263 263 263 264 265 265 262 265 273 277 276 277 278 278 278 279 279 278 277 277 277 278 278 275 273 274 275 274 271 270 269 268 268 268 268 267 266 265 264 263 262 260 259 259 259 259 257 256 256 256 256 255 256 256 255 256 257 258 259 259 258 258 259 258 256 255 255 256 258
263 263 263 264 262 264 263 264 263 263 263 263 263 264 263 262 262 262 261 262 262 261 261 262 261 269 274 276 278 278 278 278 278 279 278 277 277 278 273 272 272 272 272 273 272 271 271 270 269 268 268 266 265 264 263 263 262 261 260 259 258 257 257 256 256 256 256 256 256 257 258 258 258 257 256 257 257 258 258 259 257 256 256 256 258
262 262 262 261 261 263 262 260 262 262 265 262 262 262 262 261 260 259 260 260 260 259 260 259 258 262 268 267 270 274 276 277 278 278 278 277 277 276 273 273 272 272 271 272 271 269 269 268 268 267 266 265 264 263 262 262 261 260 260 259 258 258 257 257 257 257 256 256 257 257 257 257 255 254 254 256 257 258 258 257 256 258 259 259 260
260 262 261 259 261 259 260 261 260 265 262 261 259 260 260 259 259 260 260 260 259 259 259 257 263 262 262 264 269 267 267 273 275 276 277 277 275 274 273 272 272 272 271 271 271 270 269 268 266 266 265 264 263 262 261 261 260 259 258 258 258 257 259 259 260 259 258 257 258 258 257 257 255 255 256 257 257 257 257 258 257 257 259 259 259
257 264 266 266 265 261 260 259 259 260 259 259 259 259 259 258 258 257 258 257 258 258 258 257 258 258 261 261 259 262 266 266 267 268 269 269 270 269 269 270 270 271 271 271 269 268 269 267 265 264 264 263 262 261 260 260 259 258 258 257 256 256 258 258 258 258 257 257 257 256 255 255 255 256 257 257 257 257 257 258 258 259 259 259 258
259 261 264 267 264 264 260 259 258 259 259 258 257 257 257 258 258 259 257 257 257 256 255 256 257 259 259 258 259 259 262 263 265 267 267 268 268 268 267 267 267 267 267 267 266 265 265 264 263 262 262 261 261 260 260 259 259 258 257 256 256 256 256 256 257 256 256 256 256 255 254 255 256 257 257 257 257 257 258 258 259 259 259 258 258
256 259 261 265 263 261 258 258 257 257 257 257 257 257 258 258 257 257 255 256 256 256 256 256 256 256 258 262 267 266 260 260 260 262 263 264 265 265 265 264 264 264 263 264 264 263 263 263 262 262 261 261 260 260 259 259 258 257 256 256 255 256 257 256 256 256 256 255 255 255 255 255 256 256 256 256 259 259 259 259 258 257 257 257 258
255 257 258 259 260 257 256 256 255 258 256 257 255 256 256 256 255 255 256 256 256 256 255 255 255 254 260 267 267 268 264 260 259 259 259 258 259 260 260 260 260 260 261 261 261 261 261 261 261 261 261 260 259 259 258 257 257 257 256 256 256 255 256 256 256 256 255 255 255 254 255 255 256 256 257 259 257 257 258 257 257 257 257 257 258
255 255 255 256 255 255 255 254 253 253 253 254 254 257 256 254 254 255 255 255 255 255 255 255 254 255 257 264 265 266 263 262 262 261 260 259 258 257 257 259 260 261 260 259 258 258 257 257 257 257 258 259 259 259 258 258 257 256 256 256 255 255 256 256 256 256 256 255 255 255 255 255 256 257 256 256 256 256 255 256 256 256 256 256 257
255 255 255 255 254 254 254 252 253 253 252 255 255 255 255 254 254 253 253 253 254 254 254 254 254 255 254 255 258 256 255 256 257 258 259 260 259 258 257 255 254 254 253 253 252 252 252 252 253 253 253 254 256 256 258 258 257 256 256 256 256 256 256 256 256 256 256 255 255 255 255 255 256 255 256 257 255 255 255 254 254 254 255 255 256
253 253 253 252 252 252 252 252 253 253 255 254 252 253 254 253 253 253 254 253 254 254 253 254 254 254 254 253 252 253 251 251 254 254 254 255 255 254 251 250 250 252 251 251 251 250 250 251 252 252 252 254 255 255 255 256 256 257 257 256 255 256 256 257 257 257 256 255 255 255 255 255 254 254 255 255 254 253 254 254 254 256 256 256 256
252 252 253 252 252 252 252 251 254 252 252 252 251 250 251 250 251 252 253 253 253 253 252 253 252 253 253 251 251 253 252 250 250 250 252 251 250 250 249 248 248 248 249 250 249 250 251 251 251 252 253 253 254 255 255 256 256 256 256 256 256 257 257 258 257 256 255 255 255 255 255 255 255 255 255 254 254 254 253 254 254 255 255 256 256
251 252 253 252 252 253 253 252 250 250 250 251 251 251 250 249 250 252 253 252 252 253 252 251 251 251 250 250 250 249 250 251 249 249 248 248 248 249 248 247 248 248 247 248 249 250 250 252 251 252 253 253 253 255 255 255 255 255 255 255 255 256 256 257 256 256 256 255 255 255 254 254 254 255 255 256 256 255 255 255 255 254 254 255 255
251 252 252 252 251 251 250 250 251 254 251 251 251 251 251 251 250 251 250 250 251 251 250 249 248 247 249 248 249 249 249 248 249 249 248 247 247 247 246 246 248 248 248 248 248 249 250 250 251 251 252 253 254 254 255 255 255 255 255 255 255 255 255 256 255 255 255 255 254 254 254 254 254 254 254 254 254 254 254 254 254 254 254 255 256
251 251 251 251 251 250 250 250 251 249 249 250 251 250 250 250 249 249 249 249 249 249 247 247 245 246 246 247 248 248 248 249 247 246 246 247 246 246 247 247 250 248 248 249 249 249 249 250 251 251 252 252 252 253 253 254 255 255 255 255 255 256 256 256 255 254 255 254 254 253 253 253 253 253 254 254 254 254 254 254 253 254 254 255 255
250 251 251 251 250 249 249 249 247 247 248 247 247 248 249 248 248 248 247 247 247 247 245 246 247 246 246 247 248 248 248 247 247 247 247 246 246 246 246 248 247 247 248 248 249 249 249 248 249 250 251 251 252 252 252 253 253 254 254 255 256 257 256 256 256 256 255 254 253 253 252 252 252 253 253 253 253 253 253 253 254 254 254 254 254
251 250 250 249 248 248 247 246 246 245 245 245 244 245 247 246 245 246 247 246 246 246 246 245 244 245 246 246 248 247 247 247 247 247 247 247 247 247 247 247 249 247 247 248 249 249 249 248 249 251 250 252 252 252 252 252 252 253 255 256 256 257 257 256 256 256 256 256 254 253 252 252 252 252 252 253 252 252 253 253 254 253 253 254 255
Wind_Speed
10 10 9 9 10 11 10 9 9 8 8 8 9 8 7 7 7 7 6 7 7 7 7 7 7 7 8 8 8 7 7 7 5 6 6 6 5 6 6 6 7 5 6 5 3 4 5 5 3 3 3 4 3 3 3 2 1 2 1 1 2 1 1 1 4 10 7 2 4 5 6 7 6 4 7 7 7 7 7 7 8 8 9 8 9
10 10 9 8 9 10 9 7 7 7 8 8 8 8 8 8 7 7 8 7 7 8 7 6 6 6 7 7 7 7 6 7 6 6 7 7 6 5 6 6 7 6 5 5 3 3 4 5 3 3 2 3 3 2 2 1 0 0 1 2 1 1 1 2 4 4 13 6 5 4 5 6 8 4 6 10 9 6 8 7 7 7 8 8 8
8 7 8 8 9 7 7 7 8 9 10 9 9 8 8 7 7 8 8 7 5 5 7 6 6 6 6 6 5 5 6 7 6 6 7 8 8 5 6 7 7 7 6 5 4 4 4 4 3 3 2 3 2 1 1 0 1 0 1 1 1 2 2 2 1 5 7 11 5 8 7 6 6 8 7 6 7 7 8 9 8 7 7 8 8
7 7 7 8 8 8 9 8 10 10 11 9 10 9 8 7 7 7 7 6 7 5 5 6 6 6 7 7 6 6 6 6 5 5 6 7 7 7 6 6 6 6 6 5 4 4 4 3 3 3 2 2 1 1 1 1 0 0 1 2 2 3 3 2 3 4 6 10 7 7 8 9 8 6 6 7 7 8 8 8 7 7 8 8 8
8 9 10 11 10 11 11 10 11 11 11 9 10 9 8 7 6 7 7 7 6 6 6 5 6 6 8 8 7 7 7 7 8 7 6 6 7 7 6 5 5 5 5 5 5 4 3 4 3 3 2 2 1 2 1 0 1 1 2 3 3 3 2 2 4 4 6 8 10 5 6 7 7 7 7 9 10 8 7 8 8 8 9 8 8
10 10 10 12 11 12 12 11 12 12 11 10 10 9 8 8 8 6 7 8 7 6 7 6 7 7 7 6 6 6 6 6 7 8 8 6 5 5 5 5 4 5 4 4 4 4 4 4 3 3 3 3 2 1 1 1 1 1 2 3 3 2 3 3 4 5 5 6 7 10 6 7 9 7 6 8 10 12 11 8 6 5 8 11 9
10 11 11 11 11 12 12 12 11 11 10 9 8 8 8 8 9 9 8 8 9 8 8 8 6 6 7 6 6 6 5 5 5 7 7 7 7 7 6 4 4 4 3 4 4 4 4 3 3 3 3 3 3 3 2 2 2 3 3 3 3 2 3 4 4 4 5 6 6 6 9 7 7 10 8 7 8 8 11 13 12 8 8 10 12
11 11 10 10 12 13 12 10 9 8 6 6 7 8 7 8 8 7 7 8 9 9 9 8 7 6 6 6 5 5 5 5 5 6 7 7 6 6 6 6 5 4 3 3 3 4 4 4 4 3 4 3 3 3 3 3 3 3 4 3 3 3 3 4 3 4 4 5 6 8 7 8 8 7 7 7 9 8 6 11 15 16 15 12 11
10 10 11 12 13 11 8 7 6 6 7 7 7 8 8 8 7 7 7 7 7 7 7 7 7 6 5 6 6 6 6 7 6 7 7 6 5 7 7 6 5 4 3 3 3 3 3 3 3 3 3 5 7 6 6 6 5 3 3 3 3 3 3 2 2 3 4 5 7 7 7 7 7 9 10 9 10 12 13 12 13 12 13 14 11
11 11 12 12 8 7 7 7 7 7 8 9 9 8 8 8 8 8 8 8 7 7 7 7 7 7 8 7 6 6 6 5 6 11 10 9 8 6 5 5 5 5 5 4 3 3 3 3 3 6 6 5 4 5 5 5 6 4 5 4 4 3 3 3 3 4 5 6 7 8 8 8 8 9 10 10 11 12 12 12 12 13 13 14 14
11 11 12 9 7 7 8 8 8 10 9 8 8 9 9 8 8 8 8 8 8 8 7 8 8 8 9 8 8 6 6 5 12 14 13 13 9 9 8 7 6 5 4 5 6 5 3 3 3 4 4 4 2 4 5 5 5 5 7 7 6 6 5 4 5 6 6 6 7 6 7 9 9 9 11 12 12 11 10 11 12 13 12 14 16
12 11 10 9 9 10 10 9 10 10 10 11 10 9 8 8 8 8 8 8 7 7 9 9 8 8 7 7 8 7 7 9 15 15 14 14 10 6 5 7 7 6 5 5 5 4 4 4 3 3 3 3 3 2 4 5 6 6 7 6 7 8 8 6 6 6 6 6 6 5 7 10 10 10 11 10 9 9 9 10 12 11 13 12 12
11 11 11 11 11 11 10 11 11 11 10 10 8 8 9 9 9 9 10 8 7 9 10 9 9 8 9 10 9 8 8 12 16 16 15 15 14 9 4 4 6 6 5 5 5 5 5 5 4 4 3 6 4 3 2 2 6 7 7 7 7 9 9 11 12 8 6 7 7 8 8 10 12 9 8 10 11 10 11 10 10 10 10 11 12
12 12 11 12 12 11 11 10 11 11 9 9 9 9 9 10 9 8 7 7 9 9 8 11 10 10 10 10 9 8 8 12 17 18 17 16 15 11 7 6 6 5 5 5 5 6 6 6 5 4 3 3 2 3 3 3 3 3 3 3 3 7 11 13 13 14 12 8 7 8 10 9 7 8 10 11 11 11 10 11 9 7 7 9 14
11 11 12 12 11 10 10 11 11 10 10 9 8 9 9 8 9 9 10 11 11 12 12 11 10 9 9 8 8 8 8 14 18 19 18 18 17 13 6 5 5 5 5 5 6 6 6 5 5 5 4 4 4 5 4 4 3 3 4 4 5 6 7 7 7 6 6 6 7 9 7 5 7 10 10 10 9 8 9 9 8 8 9 10 10
12 12 12 12 12 11 12 11 10 9 9 8 9 9 10 11 12 10 9 8 6 5 5 6 9 9 9 8 8 9 8 16 18 19 19 18 19 9 7 7 7 6 6 6 6 6 5 5 5 5 5 5 7 11 9 6 5 5 6 7 7 8 7 9 13 10 7 7 6 5 6 8 12 11 10 8 7 7 5 5 5 5 7 8 9
13 13 13 11 11 11 11 10 9 9 9 10 11 12 13 12 9 6 8 8 8 9 10 10 8 9 9 9 10 9 8 14 19 19 19 20 15 7 8 7 6 7 7 5 5 6 5 5 5 5 6 6 9 11 11 11 7 8 8 7 8 8 7 5 4 6 9 11 10 9 11 13 14 14 13 14 10 9 4 6 5 5 7 9 8
13 11 11 11 10 9 8 9 10 11 11 14 14 12 9 6 7 7 9 10 11 11 9 8 7 7 9 10 10 10 9 11 18 19 20 21 15 10 9 8 7 7 6 7 6 6 6 11 8 7 7 7 10 12 12 9 7 7 7 9 9 7 5 3 2 3 4 3 5 7 8 9 10 11 12 12 12 9 4 6 6 5 7 6 9
11 11 10 7 7 9 10 11 11 11 12 12 11 11 11 11 9 8 8 7 8 5 6 7 6 6 8 9 8 10 8 9 16 19 20 20 15 8 8 8 8 8 7 7 6 6 6 9 14 12 9 9 14 12 13 10 7 8 9 9 8 7 5 4 4 3 1 3 4 5 5 5 5 5 7 13 12 9 5 5 5 5 6 7 8
8 6 6 8 8 8 8 10 10 11 12 10 9 10 7 6 8 9 8 7 7 6 6 7 8 8 7 7 8 9 9 8 9 18 19 19 17 8 7 8 11 10 8 8 7 6 7 7 9 16 17 16 15 14 13 14 10 9 8 6 6 6 3 4 3 3 2 2 3 2 5 4 5 5 5 5 6 5 6 5 5 4 5 7 7
6 6 6 7 7 9 8 10 11 10 10 10 9 7 7 8 7 8 8 7 6 6 7 7 8 8 7 7 7 8 9 9 9 15 18 19 20 14 9 11 10 8 8 7 7 7 7 7 6 12 17 17 16 16 15 15 15 7 6 6 6 5 6 4 4 5 3 2 2 3 3 3 4 4 5 5 5 5 4 6 5 5 5 6 7
6 6 7 7 8 8 9 8 9 9 7 7 7 8 7 8 8 8 7 7 8 9 7 7 8 8 6 6 7 9 7 9 7 12 17 18 20 20 10 11 8 7 7 7 7 7 8 7 6 10 17 17 16 15 16 15 16 6 7 10 10 11 3 3 4 2 2 2 1 2 3 4 4 5 5 5 5 5 5 5 5 5 5 5 6
6 7 7 7 8 8 8 9 9 7 8 9 10 9 7 8 7 7 8 8 9 9 9 8 8 9 7 8 8 8 8 8 13 10 14 18 20 22 19 10 15 9 9 10 10 8 5 7 7 12 16 16 16 16 15 16 14 7 12 11 10 6 9 3 4 4 2 1 1 3 4 5 4 5 5 5 5 4 4 5 6 6 6 6 7
6 7 7 7 7 7 8 9 9 8 9 8 8 8 8 8 8 8 9 9 9 9 9 8 8 9 11 10 9 9 8 7 10 14 12 18 20 21 23 20 17 10 8 8 6 6 6 7 7 14 16 16 16 16 16 15 11 11 12 10 9 5 5 5 2 1 1 2 3 4 5 4 3 4 5 5 5 6 7 6 6 6 7 7 7
7 7 7 7 8 7 7 7 8 7 7 8 9 8 7 8 8 6 7 8 8 10 10 8 10 11 10 12 12 9 7 7 7 11 16 16 18 19 20 23 22 20 11 8 7 6 9 13 14 16 16 16 17 16 15 16 19 15 9 9 4 5 3 2 2 1 2 6 6 6 5 5 5 5 6 6 6 6 5 5 4 5 6 6 7
6 7 7 6 6 5 6 5 5 6 7 8 9 9 10 10 10 8 8 9 10 10 10 9 10 10 11 12 11 7 5 7 8 6 8 9 11 17 20 21 23 22 17 10 14 16 16 16 18 18 16 14 10 9 4 3 8 10 12 6 7 5 4 3 2 4 6 5 5 6 6 3 4 5 5 5 4 6 5 5 7 7 6 6 7
6 5 6 5 5 5 7 7 6 6 6 6 6 7 7 8 8 8 9 10 10 10 9 8 8 8 10 11 8 6 6 6 6 6 6 7 8 9 11 12 17 19 15 9 12 12 14 14 11 13 11 15 15 11 8 8 7 5 3 5 5 5 5 5 6 6 6 5 5 5 4 4 3 4 5 4 5 5 4 4 5 7 6 6 6
7 6 6 5 6 6 7 7 8 7 6 7 7 7 6 7 9 10 11 11 10 10 9 9 10 11 11 10 9 7 8 7 8 9 9 10 8 7 7 8 8 9 10 9 7 9 9 11 14 9 7 6 4 1 3 4 5 5 4 4 4 4 5 5 5 4 4 4 4 3 3 3 4 5 5 4 5 6 4 4 3 6 5 5 6
3 3 4 4 5 4 5 6 6 7 6 6 6 6 8 9 9 8 5 7 9 10 10 10 10 9 8 9 8 9 8 10 10 8 9 11 11 9 10 10 9 10 11 12 5 4 5 6 7 6 7 7 6 6 5 5 4 3 3 3 3 3 3 3 6 6 5 3 5 5 5 3 5 4 4 5 5 5 3 4 5 5 5 2 4
3 3 4 4 3 4 3 4 3 5 6 6 6 5 4 6 7 7 7 6 12 13 10 10 7 6 7 8 7 11 12 7 5 14 17 18 20 21 18 17 17 13 12 18 9 6 7 8 8 9 8 7 8 8 7 6 6 5 5 5 5 4 5 6 5 6 4 5 5 4 5 3 5 4 4 5 6 5 5 5 4 2 3 4 6
4 4 4 3 4 4 3 4 3 4 4 5 5 6 6 5 9 12 11 10 11 13 17 17 13 12 10 8 7 14 15 11 9 11 15 17 19 21 21 20 20 18 18 12 12 11 10 10 9 8 9 8 9 9 7 7 7 6 6 5 5 6 6 6 6 6 6 5 4 4 3 3 4 4 5 5 6 7 5 3 2 3 4 4 5
6 5 5 4 5 5 5 5 5 5 5 5 6 6 6 7 7 9 13 13 13 14 14 15 16 16 15 13 8 6 11 14 16 15 14 16 18 19 19 20 21 23 23 22 12 11 8 10 9 9 9 9 9 7 8 8 7 6 6 4 6 6 7 7 6 6 6 6 5 5 4 4 4 5 5 5 6 6 6 6 5 5 5 4 5
5 3 3 4 4 4 4 5 4 5 5 4 4 4 5 6 7 6 3 8 13 16 16 16 16 17 17 19 18 12 10 11 15 16 17 17 17 17 18 21 22 22 22 15 11 10 9 9 9 8 8 9 8 8 7 7 7 7 6 6 6 6 7 6 4 6 6 6 4 4 4 4 4 5 5 5 5 6 6 6 5 4 4 5 6
2 3 3 4 5 4 5 5 5 5 4 4 4 5 5 5 6 5 5 4 5 7 11 16 17 17 18 18 17 18 17 16 15 15 16 16 16 17 17 14 19 21 19 12 10 10 8 8 8 8 8 8 7 7 7 7 7 6 6 6 6 5 5 4 5 6 5 5 5 5 4 4 5 4 4 4 5 5 6 6 5 5 5 5 6
2 3 5 5 4 5 5 4 5 4 5 5 6 5 6 6 5 6 6 6 7 7 5 5 9 14 12 12 15 18 18 17 17 16 15 14 15 16 16 10 10 10 13 11 9 8 8 9 8 8 8 8 7 7 8 7 7 6 7 6 6 6 5 5 6 5 5 5 5 5 5 5 5 5 4 5 5 6 6 6 6 5 4 5 5
3 3 3 3 3 4 5 5 5 6 6 6 5 5 5 5 6 6 5 6 6 6 5 6 5 5 12 14 16 16 16 16 16 16 15 14 14 15 9 8 8 8 8 8 8 9 8 8 7 7 7 7 6 7 7 7 8 8 7 6 6 6 6 6 6 6 5 5 6 5 5 5 6 5 4 4 6 7 6 6 5 4 4 5 5
4 4 4 4 4 5 5 4 5 5 5 5 5 4 5 5 6 4 6 6 6 4 5 5 4 6 5 4 5 8 10 12 14 15 15 14 15 11 7 7 7 7 7 8 6 4 6 6 5 6 6 7 7 7 6 6 6 6 5 6 6 6 6 6 6 6 5 5 6 6 5 6 5 5 4 5 5 6 7 6 5 5 6 8 8
4 5 5 4 4 3 3 4 4 4 4 4 4 5 5 5 5 5 6 6 4 4 6 4 4 5 5 6 2 1 4 6 8 8 10 12 10 7 6 6 6 7 7 6 7 7 7 5 5 5 6 6 6 6 6 6 6 6 6 6 6 6 7 6 7 6 6 6 6 6 6 5 5 5 5 5 6 6 6 7 6 5 5 8 6
2 3 5 5 4 4 4 3 3 4 3 3 4 5 6 5 4 4 5 4 4 5 5 3 4 4 5 3 3 3 1 2 3 5 1 2 1 1 1 2 3 5 5 6 6 7 7 6 5 5 5 6 6 6 6 6 6 6 6 6 5 5 6 5 6 6 5 6 6 5 5 5 4 5 4 5 6 6 7 7 6 5 6 6 6
2 2 3 4 3 3 4 5 4 4 5 5 4 5 4 5 5 5 4 4 5 4 4 4 4 5 3 1 1 0 1 3 3 3 3 2 2 0 0 1 1 1 2 2 2 2 3 2 1 3 4 4 5 5 5 5 5 5 5 5 6 6 6 6 6 6 6 6 6 5 5 6 5 5 5 5 5 6 7 7 6 6 6 5 6
3 3 3 3 4 3 2 3 4 4 4 4 4 5 5 5 4 3 2 3 3 2 3 4 5 3 1 3 6 4 3 3 2 2 2 3 3 3 1 1 1 1 2 2 2 1 0 1 1 2 3 3 4 4 4 4 4 4 5 6 5 5 5 5 5 6 6 5 6 6 5 5 5 5 6 6 6 6 6 7 6 4 4 4 7
3 2 2 2 3 3 3 3 3 2 2 3 2 3 4 3 2 2 3 2 4 3 2 2 2 2 4 6 5 7 4 4 1 3 2 1 2 3 3 4 2 0 0 0 1 2 2 3 3 3 4 4 4 4 4 4 5 5 5 5 6 5 5 6 5 5 6 6 5 6 5 5 5 6 6 6 6 6 7 5 4 5 5 6 6
3 2 2 3 2 2 3 2 2 3 2 2 1 2 2 2 2 3 2 3 1 3 2 2 1 0 1 3 3 4 4 2 1 1 2 1 2 2 2 3 3 2 1 1 2 2 3 4 4 4 5 5 5 5 6 6 6 5 5 6 6 6 6 5 5 5 5 5 5 5 5 5 5 5 5 5 6 5 5 5 5 6 6 6 6
3 4 5 3 4 3 4 3 3 2 2 2 2 3 3 2 1 1 2 1 1 1 2 2 1 1 0 3 3 4 2 2 2 2 1 1 2 3 3 3 3 3 3 3 3 2 2 3 4 4 3 3 4 4 4 5 5 6 6 6 6 7 6 6 7 7 6 5 5 5 5 5 5 5 6 7 5 6 6 5 5 5 6 6 7
4 5 4 5 3 5 3 2 3 3 5 5 3 2 3 1 2 1 1 2 2 2 1 1 0 0 0 0 1 1 1 1 2 2 2 2 2 3 3 3 3 4 4 4 3 1 2 3 3 3 4 4 4 4 5 4 5 5 6 7 7 7 8 8 8 6 5 6 5 5 5 5 5 6 6 6 5 5 6 6 6 6 7 7 6
4 4 6 4 4 5 5 3 4 3 3 3 4 3 2 2 1 1 2 1 1 1 0 0 0 0 0 0 0 1 1 1 1 1 3 2 3 4 3 3 3 4 4 4 3 3 4 4 4 4 5 5 5 5 5 5 5 5 5 6 7 7 6 6 4 5 6 6 6 6 6 5 6 6 7 6 5 5 6 7 5 6 7 8 7
3 4 3 4 4 5 4 4 3 3 3 3 3 3 2 1 1 1 2 2 1 1 0 0 0 1 1 1 1 2 2 1 2 2 3 3 4 4 4 3 3 4 4 4 2 3 3 5 4 5 5 5 5 5 5 5 5 5 5 6 6 6 6 4 4 4 5 6 6 5 6 6 6 5 7 7 6 6 7 7 7 7 6 6 7
4 4 3 4 4 5 4 3 3 3 3 3 2 2 2 2 1 2 1 1 0 1 0 0 1 1 2 2 2 1 2 2 2 4 3 4 4 4 4 3 3 4 3 3 3 3 3 4 4 4 5 5 5 5 5 5 5 5 5 6 6 6 6 6 5 5 5 5 5 6 6 6 6 6 6 7 7 7 7 7 6 6 7 7 8
3 3 3 3 4 4 4 3 4 2 2 1 1 1 2 1 0 0 0 0 0 0 1 1 2 1 1 3 2 3 3 5 4 4 4 4 4 4 4 4 4 3 3 4 4 4 4 4 5 5 5 5 5 5 5 5 5 5 5 5 6 10 11 10 7 7 7 6 6 6 6 6 7 7 7 7 8 7 7 7 6 7 6 7 8
2 2 2 3 4 3 4 4 3 3 3 2 1 1 0 1 0 0 0 0 0 1 1 1 1 2 3 3 5 4 3 4 4 4 4 4 4 4 3 4 3 4 4 4 4 4 4 3 4 5 5 5 5 5 5 5 5 6 5 6 9 12 12 13 13 11 8 6 7 6 7 7 7 7 7 7 7 7 7 7 7 7 7 7 8
3 2 3 3 3 3 3 4 3 2 1 1 0 0 0 0 1 1 0 1 1 2 1 2 3 2 3 5 5 4 4 5 6 5 5 4 4 3 3 3 5 3 4 4 5 6 5 4 4 5 5 5 5 6 5 6 5 6 8 11 13 13 14 13 9 11 15 10 6 6 7 8 8 8 7 7 6 7 9 8 8 7 7 7 8
Wind_Direction
173 175 168 172 164 170 169 168 167 159 154 160 157 163 164 162 164 161 145 165 161 164 163 160 156 153 153 155 155 154 148 144 139 135 130 131 133 135 135 131 123 123 118 109 111 119 122 118 119 121 124 98 99 90 72 69 63 65 112 91 4 335 134 233 254 287 295 113 352 326 327 320 320 323 318 320 320 318 320 314 313 314 311 308 308
179 173 173 165 171 170 170 167 158 155 159 162 164 166 167 166 162 152 169 169 168 165 159 155 156 159 158 156 155 152 149 146 148 145 142 138 141 144 138 133 126 129 123 123 128 128 126 115 114 113 116 109 109 86 129 96 127 63 342 137 269 267 289 141 273 261 294 315 321 307 306 319 311 326 324 322 320 318 314 312 309 305 306 304 302
175 166 165 165 171 170 164 166 162 166 167 171 170 169 169 166 162 166 169 166 167 163 156 152 155 158 155 151 148 154 156 152 155 151 152 148 145 147 148 142 141 142 139 144 142 138 114 117 125 120 113 92 120 144 159 160 172 173 265 255 212 251 236 231 248 283 290 299 325 321 325 321 317 318 317 305 301 305 308 310 309 303 293 293 293
161 156 158 166 168 165 174 171 171 175 177 176 174 174 169 166 164 168 167 161 163 153 145 149 151 161 158 157 161 159 160 158 151 154 158 155 148 149 149 145 144 146 146 150 151 139 134 119 132 125 121 117 150 154 178 164 173 235 246 271 212 238 243 221 251 256 287 297 319 326 318 319 318 313 301 300 301 306 303 296 289 290 291 291 288
162 170 171 172 174 176 179 179 181 180 180 177 179 170 168 164 168 171 161 164 157 145 146 148 158 166 172 169 167 169 171 166 160 160 164 159 150 145 147 145 146 148 149 152 150 139 139 141 148 133 133 129 179 156 181 152 239 193 248 260 240 246 245 247 249 256 274 283 297 304 309 304 304 310 312 315 312 304 294 294 297 296 294 286 289
174 172 178 178 180 183 184 183 187 184 181 179 175 170 166 170 171 171 169 162 154 158 157 163 172 175 175 177 174 174 175 175 165 156 144 145 136 134 138 144 148 145 144 147 142 142 140 145 150 147 145 154 195 182 177 200 229 237 246 256 248 239 236 255 255 256 263 279 294 307 315 314 312 308 312 311 315 315 312 298 288 290 305 308 301
175 178 183 185 181 188 188 190 186 184 182 176 166 168 173 172 174 177 173 166 162 162 169 169 176 175 179 177 181 174 171 173 164 155 154 151 149 146 145 144 147 140 145 146 143 141 141 144 150 152 163 172 176 192 192 210 203 231 231 231 243 218 242 249 256 271 282 292 296 294 301 301 301 307 314 306 294 297 306 318 316 312 306 311 310
177 182 181 187 190 193 193 184 183 181 172 165 171 171 171 176 180 174 168 169 168 170 172 175 170 171 181 180 176 172 169 168 170 166 145 156 148 149 150 155 151 146 144 149 153 154 151 149 151 173 173 187 178 203 189 204 212 216 237 193 218 221 240 255 272 283 289 292 289 295 291 299 299 282 288 301 306 306 320 321 315 321 323 322 309
180 182 186 194 199 193 178 171 165 166 165 165 172 178 179 178 174 172 174 171 171 172 166 164 163 167 174 180 178 180 178 181 179 171 158 147 153 129 140 157 156 155 165 171 172 160 154 156 163 174 191 202 210 210 210 210 189 204 240 177 205 225 244 269 267 281 283 279 283 281 289 291 299 308 312 316 322 322 322 322 313 315 321 318 316
182 189 194 198 189 173 169 167 169 163 169 181 181 177 177 176 176 177 180 178 171 166 164 164 170 175 176 184 185 183 187 187 188 176 168 157 148 154 157 165 164 170 177 189 202 188 176 170 188 199 206 213 225 236 241 248 246 202 187 188 210 211 228 229 260 262 266 274 275 293 296 296 306 303 302 311 318 319 321 324 321 325 321 312 302
190 191 196 188 177 168 170 175 170 180 184 178 178 180 179 176 179 182 181 177 172 168 165 173 181 181 182 183 187 189 188 190 189 181 174 170 161 155 159 160 158 174 188 193 206 200 193 187 193 220 212 209 221 239 249 251 255 260 262 256 227 191 197 242 247 242 253 260 274 280 284 298 298 304 313 317 319 329 332 326 322 321 323 324 318
191 192 190 182 182 179 179 175 178 185 180 187 185 181 175 176 183 184 179 175 175 166 181 188 182 183 185 185 190 193 193 195 193 188 182 179 173 163 154 160 162 186 187 202 211 202 197 192 199 187 178 170 184 238 255 256 259 260 258 249 254 255 250 224 235 246 251 267 279 281 299 297 307 318 317 328 334 331 327 322 318 319 316 315 308
192 192 189 187 189 186 179 179 184 184 189 185 179 174 179 183 184 182 188 184 169 182 192 182 190 187 186 190 195 196 199 198 197 192 187 185 181 169 157 163 181 187 188 200 210 209 197 199 201 191 179 208 210 170 180 249 275 266 257 256 267 269 265 269 278 283 293 293 298 300 301 310 309 316 337 332 328 320 323 319 315 311 311 306 301
192 194 190 194 192 187 180 180 186 189 184 181 177 181 181 190 189 186 178 176 187 190 188 193 190 192 193 194 196 196 199 202 200 195 190 189 187 172 154 181 186 182 189 197 214 215 206 198 195 195 189 190 191 205 212 220 248 277 293 287 264 272 276 279 281 285 289 293 296 295 301 307 317 326 324 329 324 316 317 310 314 317 312 298 301
193 193 196 196 190 182 180 185 189 187 182 179 179 182 187 190 189 191 188 191 189 192 193 192 196 193 194 194 197 202 205 204 204 199 193 190 190 176 174 182 183 189 189 197 215 223 213 202 195 196 191 193 198 202 201 217 220 244 256 256 254 252 255 258 256 262 269 276 281 291 305 330 324 319 318 314 308 307 303 309 328 314 296 295 288
196 196 200 194 189 188 185 187 185 180 176 175 179 187 192 197 198 193 190 194 196 186 196 195 197 196 196 194 198 211 211 205 209 204 195 192 191 176 171 183 189 189 195 198 213 219 215 203 198 202 194 197 218 222 213 201 207 229 240 244 245 249 242 242 250 250 257 276 290 312 313 309 307 305 305 309 309 301 311 322 314 298 306 309 305
201 201 200 191 191 188 184 180 179 175 174 178 190 196 198 201 200 178 188 194 190 196 200 200 197 193 196 198 202 213 211 209 211 208 200 194 191 167 174 178 191 195 205 198 204 218 216 208 213 207 205 204 218 227 228 225 215 221 233 238 242 244 238 221 248 288 298 300 294 311 324 313 309 307 308 313 311 316 340 327 305 307 314 310 307
204 198 197 193 189 177 172 172 177 183 185 193 198 202 200 195 195 182 191 193 200 205 199 198 199 198 199 204 205 209 215 212 213 213 204 198 191 178 176 181 193 200 206 211 205 218 221 218 216 212 214 213 217 224 226 228 234 235 241 246 249 234 220 222 237 249 277 312 324 331 322 318 318 319 316 313 315 320 338 304 298 316 305 305 304
200 197 195 180 167 171 178 183 188 188 194 200 197 196 195 197 191 180 200 200 212 193 189 199 204 207 209 210 206 210 221 215 217 220 211 204 195 175 174 179 193 207 201 209 207 208 228 226 224 222 216 218 221 220 225 227 231 235 239 248 243 224 225 217 230 224 257 321 317 344 329 323 322 310 299 306 313 321 308 290 304 312 301 303 304
192 183 174 172 174 177 179 185 190 191 199 198 194 200 190 175 180 187 196 196 200 191 192 202 209 217 208 209 213 214 218 221 217 225 220 212 201 172 179 176 206 208 201 206 206 223 218 224 229 229 227 222 222 222 225 232 232 236 231 223 220 237 199 200 196 169 203 213 275 288 284 301 310 308 301 296 299 291 295 300 297 290 286 294 298
172 175 165 165 172 180 182 188 192 198 196 196 192 188 181 188 180 183 192 191 188 196 197 205 214 222 211 215 214 222 217 220 219 220 226 218 210 182 195 203 208 195 201 201 208 214 222 218 217 229 233 232 226 228 230 235 242 225 194 199 202 222 182 178 205 210 163 202 256 272 291 309 301 300 294 290 288 285 286 295 289 287 285 284 292
154 154 168 176 180 181 186 192 193 194 187 172 177 192 192 182 186 187 183 184 196 204 202 206 215 227 222 217 220 226 221 218 215 221 226 225 219 207 192 214 194 183 193 211 210 217 214 211 211 224 231 234 233 232 234 234 241 227 189 210 216 262 140 142 129 104 153 191 244 302 296 295 295 296 291 282 278 281 282 281 285 283 278 267 272
154 162 170 178 183 186 188 187 188 184 186 186 186 193 180 181 183 176 180 188 198 205 208 208 213 228 232 231 227 227 222 223 220 217 225 229 227 225 214 198 207 191 198 216 213 216 202 209 216 223 230 233 234 233 233 235 240 217 192 226 252 261 137 120 150 147 196 203 287 271 274 273 280 279 282 281 279 276 277 281 283 284 280 272 269
152 165 178 186 183 188 189 190 191 188 186 180 185 184 181 185 182 186 187 188 195 208 216 207 215 227 231 237 232 226 219 214 228 223 220 228 233 230 228 217 203 197 195 220 203 200 204 209 209 223 229 233 234 235 234 235 235 219 217 231 255 165 126 153 139 155 181 245 263 264 262 261 248 266 265 267 282 292 292 288 285 282 280 282 278
160 174 184 187 190 192 185 189 190 188 181 175 182 189 185 174 188 195 181 195 199 209 217 199 213 224 229 235 237 226 206 209 219 228 227 228 233 238 233 229 221 211 205 208 194 201 208 212 215 223 229 233 234 236 239 238 243 229 208 226 184 119 143 159 180 144 228 249 240 249 253 250 243 250 270 283 288 293 292 293 283 273 275 275 275
169 187 188 189 192 172 181 192 188 187 182 187 193 191 185 185 193 187 187 203 205 211 218 206 218 225 231 238 241 228 189 202 219 215 228 239 239 238 238 236 233 228 221 204 203 207 212 214 216 221 228 232 233 234 201 180 207 211 226 208 121 165 151 166 170 196 230 235 236 239 247 254 268 268 278 282 288 284 294 301 314 311 314 314 317
177 180 186 182 167 170 182 187 187 188 192 194 198 193 187 188 192 192 195 202 209 215 220 216 223 228 236 243 247 228 212 213 206 198 199 216 230 233 238 244 239 236 237 214 204 208 210 211 215 220 220 227 231 223 196 199 203 204 115 117 155 152 178 176 198 208 225 228 242 248 248 260 282 297 284 289 286 283 275 279 293 293 310 318 320
176 186 183 172 180 179 189 184 181 191 196 188 194 202 202 190 195 203 199 201 201 217 213 218 221 221 229 235 235 231 232 218 214 201 204 208 217 218 227 233 229 226 226 219 193 197 199 210 216 213 212 228 242 35 97 151 175 177 177 155 162 170 182 207 208 206 223 219 241 257 280 281 282 274 284 281 271 277 282 284 276 293 303 322 329
157 161 164 163 189 188 189 187 191 189 192 203 217 203 194 198 207 224 223 194 205 207 209 222 224 225 223 229 219 235 238 233 230 195 203 198 202 203 214 217 217 223 223 217 201 164 175 197 202 195 189 195 195 204 192 185 201 191 193 189 184 183 196 181 215 225 223 211 233 235 255 259 271 271 274 285 274 274 286 291 278 265 297 304 294
157 175 171 180 180 174 193 194 189 189 189 200 206 256 256 207 210 212 224 202 212 223 214 223 217 200 219 231 200 220 236 242 192 199 207 210 215 216 217 216 214 213 214 218 201 196 206 207 207 207 209 200 209 212 210 205 206 206 218 215 200 193 205 212 214 225 210 211 221 227 244 253 271 277 283 278 289 281 274 276 283 302 310 311 312
177 188 171 188 177 178 173 181 183 185 189 182 193 206 243 273 237 228 220 213 219 223 228 233 228 207 197 234 226 233 248 250 227 211 212 214 218 223 225 224 221 218 209 204 214 209 207 212 217 212 215 213 221 219 214 213 212 210 216 208 208 208 217 207 219 209 212 217 221 221 236 243 264 276 274 279 283 292 290 275 257 284 282 289 300
189 197 182 180 167 172 177 180 178 183 201 192 192 199 212 235 263 241 234 232 228 229 233 237 239 239 226 220 210 234 240 241 240 238 231 226 226 228 230 227 220 215 213 204 214 220 204 213 216 217 213 220 224 215 215 215 210 206 207 197 219 212 211 221 211 189 208 208 214 228 229 233 245 255 261 272 285 286 289 295 294 294 297 291 277
192 182 171 173 171 167 169 180 191 186 197 198 213 202 212 226 245 274 299 251 244 244 243 241 241 243 244 247 243 228 212 221 234 238 238 240 239 237 231 227 223 220 215 213 215 218 213 213 217 216 211 220 217 212 215 210 209 209 199 206 216 213 211 217 198 191 196 202 199 223 224 235 239 251 258 273 281 281 285 283 282 282 280 293 294
181 168 170 173 165 177 178 188 186 200 190 191 195 196 218 215 234 243 257 290 298 267 250 245 244 245 247 247 249 253 250 237 229 232 239 242 241 240 235 232 230 224 214 213 212 216 210 218 220 215 213 212 212 203 209 207 206 208 205 213 219 212 205 180 184 202 198 214 221 227 227 232 234 239 257 263 265 267 271 272 274 277 286 283 290
150 153 157 156 172 182 184 180 186 183 181 190 196 203 211 214 209 216 219 226 234 242 247 260 255 245 245 248 251 252 251 252 248 235 230 237 241 239 235 232 226 224 220 214 211 215 211 214 216 215 209 211 205 195 209 205 201 201 207 211 209 206 193 190 201 198 203 205 214 226 222 227 229 228 239 258 275 277 270 270 261 247 259 285 289
147 162 162 162 161 174 177 186 184 185 193 201 199 205 200 194 203 218 216 222 228 241 259 241 246 273 267 258 251 247 250 253 253 247 226 230 239 233 227 224 217 216 219 221 210 213 214 218 209 213 205 207 194 199 205 203 202 202 204 199 207 205 201 200 204 201 206 205 215 221 225 223 223 227 231 251 255 260 264 264 260 260 260 266 271
156 166 172 182 180 178 182 177 186 190 192 184 180 190 194 202 206 205 211 217 228 237 234 261 298 295 286 295 296 287 273 257 253 250 237 233 235 233 224 225 223 220 219 223 226 202 213 215 196 200 190 199 198 199 195 206 201 200 202 202 205 200 206 202 198 191 200 209 219 218 221 229 218 218 217 247 261 257 261 259 259 268 278 285 290
164 174 181 173 160 160 154 180 192 186 182 178 183 184 194 199 200 202 207 221 225 223 243 253 234 235 245 258 305 276 280 301 309 288 252 233 230 228 228 221 222 223 225 220 219 215 218 199 186 193 194 190 193 186 190 196 197 198 199 206 201 208 208 206 213 202 204 211 220 217 213 222 214 215 218 235 254 266 268 265 261 269 280 283 276
139 161 161 160 164 166 174 167 179 169 186 174 183 178 199 194 201 204 214 215 217 225 225 225 227 231 237 262 300 340 3 283 255 248 273 316 325 334 319 282 254 235 227 220 209 211 216 210 194 194 189 188 193 188 189 196 190 198 198 197 202 201 209 205 205 207 209 218 224 216 214 229 226 221 216 232 249 251 261 263 261 259 272 275 272
141 162 157 166 163 166 159 172 172 172 184 174 195 188 188 193 201 207 202 198 218 220 213 216 231 237 252 340 273 335 161 240 248 268 282 269 256 254 81 59 34 14 338 345 353 316 286 287 188 190 197 192 192 193 191 189 192 198 192 200 199 208 211 208 212 204 216 215 223 221 220 228 228 223 222 227 242 255 259 260 256 254 253 264 277
155 159 175 164 160 141 128 149 170 191 184 185 183 182 197 201 201 196 189 208 214 215 221 220 235 265 288 256 257 224 186 222 251 297 303 308 318 319 344 66 60 25 15 1 1 12 268 249 202 204 204 203 197 202 198 196 192 188 197 207 210 219 216 212 208 215 215 214 217 221 222 224 222 216 232 232 238 248 253 255 258 261 270 274 275
126 127 128 122 125 130 141 158 177 156 155 159 159 181 192 180 177 162 190 195 205 201 217 241 264 279 279 267 262 256 207 188 196 224 264 286 307 307 323 323 4 48 119 204 194 214 223 223 225 209 213 209 200 205 192 199 198 203 206 204 210 214 221 223 217 217 213 219 218 220 225 223 223 223 234 241 238 234 242 248 261 272 268 263 261
111 108 116 106 114 133 148 152 123 115 112 124 132 109 134 146 152 165 167 173 174 182 186 217 251 287 292 296 299 331 43 62 128 219 237 262 260 275 287 281 286 296 267 235 215 202 205 208 214 209 211 211 203 198 199 208 200 204 203 208 210 213 220 226 222 219 214 217 221 226 226 230 235 235 234 239 248 251 257 261 261 253 252 260 263
105 104 97 96 96 87 88 111 103 99 108 115 110 101 114 110 116 127 146 150 170 167 178 195 202 163 253 346 16 27 34 35 33 17 17 313 282 275 281 292 302 303 295 277 257 225 203 213 230 238 234 229 221 215 210 208 193 199 201 205 210 212 216 220 223 221 207 204 215 222 228 227 230 233 238 242 236 241 246 245 248 255 264 261 259
105 106 107 95 86 95 87 90 109 112 111 98 90 83 84 105 121 119 129 152 147 151 150 177 158 114 55 6 22 21 351 359 4 346 324 321 312 300 299 307 300 282 279 275 267 222 214 221 230 235 242 241 226 219 220 216 209 211 207 204 208 213 217 218 222 208 183 189 207 217 221 219 227 227 234 236 234 239 249 247 247 254 257 259 262
116 118 114 117 108 104 98 92 92 101 106 116 120 106 84 80 97 115 117 112 105 116 87 53 46 61 126 267 287 317 280 279 267 262 262 281 273 275 275 277 283 276 257 253 248 218 221 214 219 226 233 236 228 221 218 221 218 219 219 218 219 225 226 225 201 177 188 195 204 209 217 217 226 222 230 229 230 233 241 247 243 244 247 254 255
98 101 107 109 114 107 103 97 96 91 96 95 104 109 103 93 91 73 67 74 75 55 46 339 4 295 295 263 250 253 250 246 247 245 246 250 258 261 268 264 266 272 273 264 245 234 228 228 224 224 233 239 236 231 225 219 216 216 219 223 229 234 238 232 214 210 210 210 207 204 215 219 228 224 233 235 236 234 237 240 231 237 240 252 259
96 97 108 116 115 112 106 105 98 93 91 92 93 94 92 88 74 75 64 51 50 40 3 351 310 292 291 284 269 256 251 251 251 250 249 250 251 255 258 262 264 261 265 267 256 245 234 237 239 242 245 252 250 250 245 234 228 218 219 219 222 223 224 219 215 217 220 212 205 213 217 226 232 230 227 223 232 234 240 244 246 249 251 252 253
92 103 111 108 105 110 114 105 106 106 113 103 89 79 78 84 84 94 73 97 114 263 207 258 282 283 280 274 280 280 271 266 259 261 256 258 259 258 255 256 263 271 265 268 262 252 246 244 242 243 244 247 250 250 253 248 243 238 232 228 226 224 223 218 214 220 206 202 207 210 214 222 229 233 230 228 232 231 235 240 240 242 247 251 255
71 83 93 88 92 87 80 84 91 101 86 85 104 100 75 86 68 19 204 16 315 291 283 252 251 261 261 279 277 271 267 263 263 262 264 263 262 261 266 267 270 266 261 261 266 259 252 246 244 245 245 245 245 247 245 244 244 241 240 236 236 234 231 229 228 224 211 212 207 204 205 216 221 229 229 229 231 233 235 239 237 239 243 248 250
76 78 74 82 86 84 84 88 86 76 87 97 105 121 135 218 234 255 295 258 247 266 265 255 252 259 254 246 253 260 262 267 264 265 267 270 271 273 273 274 273 273 272 268 268 266 257 252 249 248 246 249 246 246 245 244 243 241 242 245 245 242 238 236 233 235 229 218 206 202 206 212 216 222 225 225 225 227 233 237 238 237 241 245 249